2023/02/01 00:00:00,117.1,-2.9
2023/02/01 00:10:00,117.2,-2.9
2023/02/01 00:20:00,117.2,-2.9
2023/02/01 00:30:00,117.2,-2.6
2023/02/01 00:40:00,117.2,-2.7
2023/02/01 00:50:00,117.2,-2.9
2023/02/01 01:00:00,117.2,-3.1
2023/02/01 01:10:00,117.2,-3.2
2023/02/01 01:20:00,117.1,-2.9
2023/02/01 01:30:00,117.0,-3.3
2023/02/01 01:40:00,117.0,-3.2
2023/02/01 01:50:00,116.9,-3.6
2023/02/01 02:00:00,116.9,-3.5
2023/02/01 02:10:00,116.9,-3.5
2023/02/01 02:20:00,116.9,-3.5
2023/02/01 02:30:00,116.8,-3.3
2023/02/01 02:40:00,116.8,-2.8
2023/02/01 02:50:00,116.7,-3.6
2023/02/01 03:00:00,116.7,-3.4
2023/02/01 03:10:00,116.6,-3.4
2023/02/01 03:20:00,116.5,-3.6
2023/02/01 03:30:00,116.5,-3.6
2023/02/01 03:40:00,116.4,-3.7
2023/02/01 03:50:00,116.4,-3.6
2023/02/01 04:00:00,116.4,-3.5
2023/02/01 04:10:00,116.4,-3.7
2023/02/01 04:20:00,116.4,-3.7
2023/02/01 04:30:00,116.3,-3.7
2023/02/01 04:40:00,116.3,-3.6
2023/02/01 04:50:00,116.2,-3.5
2023/02/01 05:00:00,116.2,-3.7
2023/02/01 05:10:00,116.2,-3.6
2023/02/01 05:20:00,116.1,-3.5
2023/02/01 05:30:00,116.0,-3.5
2023/02/01 05:40:00,116.0,-3.6
2023/02/01 05:50:00,116.1,-3.6
2023/02/01 06:00:00,116.1,-3.5
2023/02/01 06:10:00,116.1,-3.4
2023/02/01 06:20:00,116.2,-3.4
2023/02/01 06:30:00,116.2,-3.2
2023/02/01 06:40:00,116.1,-3.1
2023/02/01 06:50:00,116.1,-3.0
2023/02/01 07:00:00,116.0,-2.5
2023/02/01 07:10:00,116.0,-2.2
2023/02/01 07:20:00,116.0,-2.4
2023/02/01 07:30:00,116.0,-2.0
2023/02/01 07:40:00,115.9,-2.0
2023/02/01 07:50:00,115.9,-1.7
2023/02/01 08:00:00,115.8,-1.4
2023/02/01 08:10:00,115.8,-1.2
2023/02/01 08:20:00,115.7,-0.8
2023/02/01 08:30:00,115.5,-0.4
2023/02/01 08:40:00,115.5, 0.0
2023/02/01 08:50:00,115.4, 0.1
2023/02/01 09:00:00,115.4, 0.5
2023/02/01 09:10:00,115.4, 0.5
2023/02/01 09:20:00,115.4, 0.8
2023/02/01 09:30:00,115.3, 1.1
2023/02/01 09:40:00,115.3, 1.5
2023/02/01 09:50:00,115.3, 1.2
2023/02/01 10:00:00,115.4, 1.1
2023/02/01 10:10:00,115.4, 1.2
2023/02/01 10:20:00,115.4, 1.2
2023/02/01 10:30:00,115.3, 1.4
2023/02/01 10:40:00,115.2, 2.0
2023/02/01 10:50:00,115.0, 1.1
2023/02/01 11:00:00,114.9, 0.6
2023/02/01 11:10:00,115.0, 0.4
2023/02/01 11:20:00,114.9, 0.4
2023/02/01 11:30:00,114.9, 0.4
2023/02/01 11:40:00,114.8, 0.4
2023/02/01 11:50:00,114.7, 0.8
2023/02/01 12:00:00,114.7, 1.1
2023/02/01 12:10:00,114.6, 0.7
2023/02/01 12:20:00,114.7, 1.0
2023/02/01 12:30:00,114.9, 0.5
2023/02/01 12:40:00,114.7, 0.1
2023/02/01 12:50:00,114.5, 0.6
2023/02/01 13:00:00,114.4, 0.3
2023/02/01 13:10:00,114.3, 0.6
2023/02/01 13:20:00,114.3, 0.7
2023/02/01 13:30:00,114.1, 1.4
2023/02/01 13:40:00,113.8, 1.6
2023/02/01 13:50:00,114.1, 2.2
2023/02/01 14:00:00,113.8, 1.8
2023/02/01 14:10:00,113.6, 1.3
2023/02/01 14:20:00,113.6, 1.1
2023/02/01 14:30:00,113.6, 0.8
2023/02/01 14:40:00,113.3, 1.0
2023/02/01 14:50:00,113.4, 0.9
2023/02/01 15:00:00,113.6, 0.7
2023/02/01 15:10:00,113.5, 0.4
2023/02/01 15:20:00,113.4, 0.4
2023/02/01 15:30:00,113.5, 0.3
2023/02/01 15:40:00,113.2, 0.5
2023/02/01 15:50:00,113.1, 0.3
2023/02/01 16:00:00,113.1, 0.3
2023/02/01 16:10:00,113.1, 0.2
2023/02/01 16:20:00,112.8, 0.2
2023/02/01 16:30:00,112.7, 0.3
2023/02/01 16:40:00,112.2, 0.0
2023/02/01 16:50:00,112.1,-0.1
2023/02/01 17:00:00,112.2, 0.0
2023/02/01 17:10:00,112.3, 0.0
2023/02/01 17:20:00,112.2,-0.4
2023/02/01 17:30:00,111.9, 0.0
2023/02/01 17:40:00,111.6,-0.1
2023/02/01 17:50:00,111.2,-0.1
2023/02/01 18:00:00,111.0, 0.0
2023/02/01 18:10:00,111.0,-0.1
2023/02/01 18:20:00,110.9,-0.3
2023/02/01 18:30:00,110.9,-0.1
2023/02/01 18:40:00,110.4,-0.2
2023/02/01 18:50:00,110.2, 0.2
2023/02/01 19:00:00,110.1,-0.1
2023/02/01 19:10:00,110.1, 0.0
2023/02/01 19:20:00,109.9, 0.1
2023/02/01 19:30:00,110.2, 0.0
2023/02/01 19:40:00,109.5, 0.0
2023/02/01 19:50:00,109.2, 0.0
2023/02/01 20:00:00,109.2,-0.1
2023/02/01 20:10:00,109.2, 0.0
2023/02/01 20:20:00,109.0,-0.2
2023/02/01 20:30:00,108.8,-0.2
2023/02/01 20:40:00,108.4,-0.1
2023/02/01 20:50:00,108.2,-0.2
2023/02/01 21:00:00,107.8,-0.4
2023/02/01 21:10:00,107.7,-0.2
2023/02/01 21:20:00,107.6,-0.2
2023/02/01 21:30:00,107.3, 0.0
2023/02/01 21:40:00,107.3, 0.0
2023/02/01 21:50:00,107.6,-0.4
2023/02/01 22:00:00,107.6,-0.3
2023/02/01 22:10:00,107.5,-0.3
2023/02/01 22:20:00,107.5,-0.3
2023/02/01 22:30:00,107.4,-0.2
2023/02/01 22:40:00,107.3,-0.5
2023/02/01 22:50:00,107.2,-0.5
2023/02/01 23:00:00,107.3,-0.7
2023/02/01 23:10:00,107.5,-0.7
2023/02/01 23:20:00,107.8,-0.6
2023/02/01 23:30:00,108.0,-0.6
2023/02/01 23:40:00,108.0,-0.9
2023/02/01 23:50:00,107.9,-0.7
